Ephrata, WA
on Sunday, November 25, 2012

Sunday
Previous Day Next Day
Daily Summary
 ActualAverageRecord
Temperature
Mean Temperature °F 33°F  
Max Temperature 36°F 40°F 60°F (1962)
Min Temperature 21°F 26°F -3°F (1985)
Degree Days
Heating Degree Days 36 32  
Month to date heating degree days 607 673  
Since 1 July heating degree days 1102 1254  
Cooling Degree Days 0 0  
Month to date cooling degree days 0 0  
Year to date cooling degree days 837 772  
Moisture
Dew Point 26°F   
Average Humidity 91    
Maximum Humidity 100    
Minimum Humidity 82    
Precipitation
Precipitation 0.00 in 0.04 in 0.35 in (2005)
Month to date precipitation 1.00 0.86  
Year to date precipitation 6.86 6.41  
Wind
Wind Speed 3 mph   
Max Wind Speed 9 mph   
Max Gust Speed 10 mph   
Visibility 7 miles   
Events Fog   

Key: T is trace of precipitation, MM is missing value
Source: NWS Daily Summary
Time(PST)TemperatureDew PointHumidity Pressure Visibility Wind DirectionWind SpeedGust SpeedPrecipitationEvents Conditions
12:53 AM 28.9°F 27.0°F 92% 30.18 in 10.0 miles Calm Calm - N/A   Clear
1:46 AM 24.8°F 24.8°F 100% 30.15 in 2.5 miles SSE 3.5 mph - N/A   Scattered Clouds
1:48 AM 24.8°F 24.8°F 100% 30.15 in 1.0 miles South 4.6 mph - N/A   Mist
1:51 AM 24.8°F 23.0°F 93% 30.15 in 0.2 miles South 4.6 mph - N/A Fog Light Freezing Fog
1:53 AM 26.1°F 23.0°F 88% 30.19 in 0.2 miles South 3.5 mph - N/A Fog Light Freezing Fog
2:15 AM 24.8°F 23.0°F 93% 30.16 in 0.5 miles Calm Calm - N/A Fog Light Freezing Fog
2:26 AM 23.0°F 23.0°F 100% 30.16 in 1.5 miles SE 3.5 mph - N/A   Mostly Cloudy
2:30 AM 23.0°F 21.2°F 93% 30.16 in 2.5 miles South 4.6 mph - N/A   Scattered Clouds
2:37 AM 21.2°F 21.2°F 100% 30.16 in 7.0 miles SSE 3.5 mph - N/A   Scattered Clouds
2:53 AM 21.9°F 21.0°F 96% 30.20 in 10.0 miles Calm Calm - N/A   Clear
4:53 AM 23.0°F 21.0°F 92% 30.24 in 10.0 miles North 4.6 mph - N/A   Clear
5:02 AM 21.2°F 21.2°F 100% 30.19 in 5.0 miles North 4.6 mph - N/A   Scattered Clouds
5:53 AM 24.1°F 21.9°F 91% 30.25 in 10.0 miles NNE 4.6 mph - N/A   Clear
6:53 AM 21.0°F 19.9°F 96% 30.26 in 10.0 miles Calm Calm - N/A   Clear
7:53 AM 26.1°F 23.0°F 88% 30.27 in 10.0 miles Variable 3.5 mph - N/A   Clear
8:53 AM 28.9°F 27.0°F 92% 30.30 in 10.0 miles Calm Calm - N/A   Clear
9:53 AM 30.0°F 28.0°F 92% 30.31 in 10.0 miles Calm Calm - N/A   Clear
10:53 AM 33.1°F 30.0°F 89% 30.32 in 10.0 miles SE 3.5 mph - N/A   Clear
11:53 AM 33.1°F 30.0°F 89% 30.32 in 10.0 miles SSE 5.8 mph - N/A   Clear
12:53 PM 35.1°F 30.9°F 85% 30.32 in 10.0 miles SE 4.6 mph - N/A   Clear
1:17 PM 33.8°F 30.2°F 87% 30.27 in 3.0 miles SE 6.9 mph - N/A   Scattered Clouds
1:22 PM 32.0°F 30.2°F 93% 30.27 in 2.0 miles ESE 5.8 mph - N/A   Mostly Cloudy
1:32 PM 33.8°F 32.0°F 93% 30.27 in 7.0 miles SE 4.6 mph - N/A   Mostly Cloudy
1:53 PM 34.0°F 32.0°F 92% 30.32 in 10.0 miles South 5.8 mph - N/A   Mostly Cloudy
2:00 PM 35.6°F 32.0°F 87% 30.28 in 10.0 miles SE 5.8 mph - N/A   Scattered Clouds
2:53 PM 36.0°F 30.9°F 82% 30.33 in 10.0 miles South 3.5 mph - N/A   Clear
3:53 PM 34.0°F 30.0°F 85% 30.34 in 10.0 miles WSW 3.5 mph - N/A   Clear
4:53 PM 30.9°F 28.9°F 92% 30.35 in 10.0 miles Calm Calm - N/A   Clear
5:53 PM 28.9°F 27.0°F 92% 30.35 in 10.0 miles Calm Calm - N/A   Clear
6:53 PM 28.9°F 26.1°F 89% 30.37 in 10.0 miles NNW 3.5 mph - N/A   Clear
7:53 PM 26.1°F 25.0°F 96% 30.37 in 10.0 miles North 3.5 mph - N/A   Clear
8:53 PM 28.0°F 26.1°F 92% 30.38 in 10.0 miles NNW 3.5 mph - N/A   Clear
9:53 PM 28.0°F 25.0°F 88% 30.38 in 10.0 miles North 5.8 mph - N/A   Clear
10:27 PM 26.6°F 24.8°F 93% 30.33 in 10.0 miles Calm Calm - N/A   Scattered Clouds
10:36 PM 26.6°F 24.8°F 93% 30.33 in 10.0 miles Calm Calm - N/A   Mostly Cloudy
10:53 PM 27.0°F 25.0°F 92% 30.38 in 10.0 miles North 4.6 mph - N/A   Overcast
11:14 PM 28.4°F 26.6°F 93% 30.33 in 1.5 miles North 5.8 mph - N/A   Overcast
11:17 PM 28.4°F 26.6°F 93% 30.33 in 0.5 miles North 8.1 mph - N/A Fog Light Freezing Fog
11:26 PM 28.4°F 26.6°F 93% 30.33 in 0.2 miles North 8.1 mph - N/A Fog Light Freezing Fog
11:53 PM 28.0°F 27.0°F 96% 30.38 in 0.2 miles North 6.9 mph - N/A Fog Light Freezing Fog
Moon Phase
Nov. 25 Nov. 28 Dec. 06 Dec. 13 Dec. 20
Sunrise:07:17 AM (PST) Moon Rise:02:39 PM (PST)11/25
Sunset:04:12 PM (PST) Moon Set:04:28 AM (PST)11/25

Copyright © 2014 The Weather Underground, Inc.